{"data":{"norad_id":62158,"epoch":"2026-05-24T22:55:00.856128Z","epoch_age_seconds":82142,"freshness":"FRESH","line1":"1 62158U 24224V   26144.95487102  .00010196  00000+0  37939-3 0  9999","line2":"2 62158  42.9971  87.4050 0000980 245.5058 114.5691 15.27592102 84144","mean_motion":15.27592102,"eccentricity":9.8e-5,"inclination_deg":42.9971,"raan_deg":87.405,"arg_perigee_deg":245.5058,"mean_anomaly_deg":114.5691,"bstar":0.00037939,"rev_number":8414,"period_min":94.266001906836,"perigee_km":482.34046585108,"apogee_km":483.68525122335,"semimajor_km":6861.1498585372,"source":"CELESTRAK","updated_at":"2026-05-25T13:38:19.596963Z"}}